FW0152 Weather Reports


time (UTC)temp
F
wind
direction
speed
knots
gust
knots
rain 1hr
in
rain 24hr
in
rain mn
in
humidity
%
barometer
mb
20260507031026 55 271 0.0 1.7 0.00 0.11 0.11 92 1007.6
20260507030528 55 0 0.0 1.7 0.00 0.11 0.11 91 1007.6
20260507030038 55 197 0.0 3.5 0.00 0.11 0.11 91 1007.4
20260507025527 55 0 0.9 3.5 0.00 0.11 0.11 92 1007.3
20260507025030 55 194 0.0 5.2 0.00 0.11 0.11 91 1007.4
20260507024537 55 228 0.0 5.2 0.00 0.11 0.11 92 1007.4
20260507024028 55 0 0.0 5.2 0.00 0.11 0.11 92 1007.5
20260507023530 55 186 0.9 5.2 0.00 0.11 0.11 91 1007.6
20260507023052 55 200 1.7 5.2 0.00 0.11 0.11 91 1007.6
20260507022528 55 173 0.9 3.5 0.00 0.11 0.11 91 1007.6
20260507022030 55 315 0.0 2.6 0.00 0.11 0.11 91 1007.6
20260507021541 55 0 0.0 3.5 0.00 0.11 0.11 91 1007.8
20260507021028 55 166 0.0 3.5 0.00 0.11 0.11 91 1007.9
20260507020528 55 175 0.9 6.1 0.00 0.11 0.11 91 1007.9
20260507020048 55 239 0.9 6.1 0.00 0.11 0.11 91 1007.5
20260507015527 55 194 0.9 3.5 0.00 0.11 0.11 91 1007.4
20260507015026 55 0 0.0 3.5 0.00 0.11 0.11 91 1007.5
20260507014537 55 0 0.0 3.5 0.00 0.11 0.11 91 1007.5
20260507014028 55 188 0.0 3.5 0.00 0.11 0.11 91 1007.7
20260507013526 55 236 0.0 3.5 0.00 0.11 0.11 91 1007.8
20260507013038 55 0 0.0 3.5 0.00 0.11 0.11 91 1008.0
20260507012529 55 206 0.0 2.6 0.00 0.11 0.11 91 1008.1
20260507012029 55 0 0.0 3.5 0.00 0.11 0.11 91 1007.9
20260507011545 55 188 0.9 3.5 0.00 0.11 0.11 91 1008.0
20260507011027 55 148 0.0 6.1 0.00 0.11 0.11 91 1008.1
20260507010527 55 227 0.9 6.1 0.00 0.11 0.11 91 1008.2
20260507010038 55 0 0.0 3.5 0.00 0.11 0.11 91 1008.2
20260507005527 55 311 0.9 6.1 0.00 0.11 0.11 91 1008.3
20260507005027 55 0 0.0 6.1 0.00 0.11 0.11 91 1008.2
20260507004541 55 142 0.0 7.0 0.00 0.11 0.11 91 1008.2
20260507004026 55 192 0.9 7.8 0.00 0.11 0.11 91 1008.3
20260507003528 55 246 1.7 7.8 0.00 0.11 0.11 91 1008.2
20260507003037 55 277 0.0 4.3 0.00 0.11 0.11 91 1008.2
20260507002528 55 0 0.0 4.3 0.00 0.11 0.11 91 1007.9
20260507002028 55 0 1.7 5.2 0.00 0.11 0.11 91 1007.8
20260507001604 55 187 0.0 6.1 0.00 0.11 0.11 91 1007.9
20260507001031 55 194 2.6 6.1 0.00 0.11 0.11 91 1007.8
20260507000527 55 0 0.9 4.3 0.00 0.11 0.11 91 1007.8
20260507000042 55 169 0.0 6.1 0.00 0.11 0.11 91 1007.7
20260506235530 55 53 0.9 6.1 0.00 0.11 0.11 91 1007.9
20260506235028 55 286 1.7 6.1 0.00 0.11 0.11 91 1008.0
20260506234541 55 162 0.9 5.2 0.00 0.11 0.11 91 1008.0
20260506234028 55 216 1.7 7.0 0.01 0.11 0.11 91 1008.0
20260506233522 55 148 2.6 7.0 0.01 0.11 0.11 91 1007.9
20260506233040 55 191 1.7 5.2 0.01 0.11 0.11 91 1007.8
20260506232522 55 210 0.9 4.3 0.01 0.11 0.11 91 1007.8
20260506232022 55 204 0.9 6.1 0.01 0.11 0.11 91 1007.7
20260506231540 55 213 1.7 6.1 0.02 0.11 0.11 91 1007.8
20260506231027 55 191 0.9 9.6 0.02 0.11 0.11 91 1007.8
20260506230526 55 180 0.9 9.6 0.03 0.11 0.11 91 1007.9
20260506230052 55 232 1.7 7.8 0.03 0.11 0.11 91 1007.8
20260506225525 55 156 2.6 7.8 0.03 0.11 0.11 91 1007.8
20260506225025 55 188 2.6 7.8 0.04 0.11 0.11 91 1007.8
20260506224537 55 236 0.9 7.8 0.04 0.11 0.11 90 1007.8
20260506224025 55 350 2.6 7.8 0.04 0.10 0.10 90 1007.7
20260506223525 55 177 1.7 7.0 0.04 0.10 0.10 90 1007.7
20260506223035 55 32 0.9 7.0 0.05 0.10 0.10 90 1007.6
20260506222529 55 219 0.9 7.0 0.05 0.10 0.10 90 1007.7
20260506222025 55 221 0.9 6.1 0.05 0.10 0.10 90 1007.7
20260506221551 55 254 0.9 6.1 0.04 0.09 0.09 90 1007.7
20260506221026 55 182 1.7 6.1 0.04 0.09 0.09 90 1007.7
20260506220524 55 228 0.9 5.2 0.04 0.08 0.08 90 1007.8
20260506220040 55 259 0.9 5.2 0.04 0.08 0.08 90 1007.9
20260506215522 55 239 0.9 5.2 0.04 0.08 0.08 90 1008.0
20260506215022 55 242 1.7 7.0 0.03 0.07 0.07 90 1008.0
20260506214538 55 204 0.9 7.0 0.03 0.07 0.07 89 1008.1
20260506214027 55 38 0.9 5.2 0.02 0.06 0.06 89 1008.1
20260506213523 56 187 0.9 10.4 0.02 0.06 0.06 89 1008.2
20260506213037 56 196 1.7 10.4 0.01 0.05 0.05 89 1008.3
20260506212526 56 248 0.9 4.3 0.02 0.05 0.05 89 1008.3
20260506212026 56 245 1.7 6.1 0.02 0.05 0.05 89 1008.4
20260506211537 56 280 0.9 6.1 0.02 0.05 0.05 89 1008.4
20260506211027 56 158 1.7 7.0 0.03 0.05 0.05 89 1008.4
20260506210529 56 360 1.7 7.0 0.02 0.04 0.04 89 1008.7
20260506210049 56 360 1.7 5.2 0.02 0.04 0.04 89 1008.5
20260506205523 56 360 1.7 7.8 0.02 0.04 0.04 89 1008.6
20260506205025 56 360 1.7 7.8 0.02 0.04 0.04 88 1008.6
20260506204545 56 0 0.9 7.8 0.02 0.04 0.04 88 1008.7
20260506204022 56 360 1.7 7.8 0.02 0.04 0.04 88 1008.6
20260506203526 56 360 1.7 7.8 0.02 0.04 0.04 88 1008.8
20260506203042 57 360 1.7 7.8 0.02 0.04 0.04 88 1009.0
20260506202532 57 360 1.7 7.8 0.01 0.03 0.03 88 1008.8
20260506202028 57 360 0.9 7.0 0.02 0.03 0.03 88 1009.0
20260506201538 57 170 1.7 7.0 0.03 0.03 0.03 87 1009.0
20260506201027 57 166 2.6 8.7 0.02 0.02 0.02 87 1009.0
20260506200527 57 355 2.6 9.6 0.02 0.02 0.02 87 1009.1
20260506200039 57 234 2.6 9.6 0.02 0.02 0.02 87 1009.2
20260506195527 57 221 2.6 8.7 0.02 0.02 0.02 87 1009.2
20260506195027 58 202 2.6 8.7 0.02 0.02 0.02 86 1009.3
20260506194542 58 273 1.7 8.7 0.02 0.02 0.02 87 1009.4
20260506194029 58 287 0.9 4.3 0.02 0.02 0.02 87 1009.3
20260506193529 58 164 1.7 4.3 0.02 0.02 0.02 86 1009.1
20260506193044 58 203 0.9 7.8 0.02 0.02 0.02 85 1009.3
20260506192528 58 360 0.9 7.8 0.01 0.01 0.01 84 1009.3
20260506192028 59 250 1.7 11.3 0.01 0.01 0.01 83 1009.4
20260506191539 59 204 2.6 11.3 0.00 0.00 0.00 82 1009.4
20260506191028 60 182 3.5 8.7 0.00 0.00 0.00 81 1009.3
20260506190529 60 360 1.7 7.8 0.00 0.00 0.00 79 1009.4
20260506190038 61 360 2.6 9.6 0.00 0.00 0.00 77 1009.5
20260506185527 62 223 2.6 13.9 0.00 0.00 0.00 75 1009.6
20260506185028 62 336 2.6 13.9 0.00 0.00 0.00 74 1009.5
20260506184547 62 211 2.6 9.6 0.00 0.00 0.00 74 1009.6
20260506184028 62 237 2.6 9.6 0.00 0.00 0.00 74 1009.6
20260506183527 62 224 1.7 8.7 0.00 0.00 0.00 74 1009.6
20260506183044 62 244 1.7 7.8 0.00 0.00 0.00 74 1009.7
20260506182527 63 163 2.6 7.8 0.00 0.00 0.00 73 1009.7
20260506182029 63 236 3.5 12.2 0.00 0.00 0.00 73 1009.8
20260506181542 63 195 1.7 12.2 0.00 0.00 0.00 73 1010.0
20260506181030 63 285 2.6 12.2 0.00 0.00 0.00 77 1010.2
20260506180531 63 243 1.7 10.4 0.00 0.00 0.00 71 1009.9
20260506180037 64 122 3.5 10.4 0.00 0.00 0.00 71 1010.0
20260506175527 64 153 0.9 9.6 0.00 0.00 0.00 71 1010.0
20260506175027 64 29 2.6 9.6 0.00 0.00 0.00 70 1010.0
20260506174538 65 186 2.6 6.1 0.00 0.00 0.00 69 1010.3
20260506174027 65 144 1.7 5.2 0.00 0.00 0.00 70 1010.2
20260506173527 65 33 2.6 7.8 0.00 0.00 0.00 69 1010.2
20260506173046 66 198 2.6 7.8 0.00 0.00 0.00 69 1010.4
20260506172527 66 173 2.6 7.0 0.00 0.00 0.00 69 1010.7
20260506172027 66 277 2.6 7.0 0.00 0.00 0.00 68 1010.8
20260506171541 67 179 2.6 10.4 0.00 0.00 0.00 68 1010.8
20260506171030 67 298 0.9 10.4 0.00 0.00 0.00 68 1010.6
20260506170527 66 276 3.5 10.4 0.00 0.00 0.00 68 1010.6
20260506170045 66 153 2.6 8.7 0.00 0.00 0.00 69 1010.5
20260506165529 66 155 3.5 9.6 0.00 0.00 0.00 68 1010.6
20260506165030 67 146 3.5 9.6 0.00 0.00 0.00 69 1010.5
20260506164551 67 250 3.5 9.6 0.00 0.00 0.00 69 1010.8
20260506164031 66 209 3.5 9.6 0.00 0.00 0.00 70 1011.0
20260506163527 65 213 2.6 9.6 0.00 0.00 0.00 70 1011.1
20260506163041 65 199 1.7 8.7 0.00 0.00 0.00 71 1011.2
20260506162529 65 34 1.7 9.6 0.00 0.00 0.00 71 1011.1
20260506162027 65 173 2.6 9.6 0.00 0.00 0.00 69 1011.2
20260506161540 65 155 3.5 9.6 0.00 0.00 0.00 69 1011.3
20260506161026 65 74 0.9 7.8 0.00 0.00 0.00 69 1011.2
20260506160528 66 153 2.6 7.8 0.00 0.00 0.00 68 1011.3
20260506160045 66 161 1.7 8.7 0.00 0.00 0.00 67 1011.5
20260506155527 67 213 2.6 15.6 0.00 0.00 0.00 66 1011.5
20260506155027 67 0 3.5 15.6 0.00 0.00 0.00 66 1011.4
20260506154543 68 215 3.5 8.7 0.00 0.00 0.00 64 1011.5
20260506154027 68 242 2.6 8.7 0.00 0.00 0.00 64 1011.5
20260506153527 68 222 3.5 13.0 0.00 0.00 0.00 65 1011.4
20260506153037 68 240 2.6 13.9 0.00 0.00 0.00 65 1011.6
20260506152530 68 333 2.6 13.9 0.00 0.00 0.00 66 1011.3
20260506152025 68 131 0.9 13.0 0.00 0.00 0.00 67 1011.5
20260506151544 67 66 2.6 9.6 0.00 0.00 0.00 67 1011.5
20260506151027 67 190 1.7 9.6 0.00 0.00 0.00 67 1011.6
20260506150527 67 180 2.6 9.6 0.00 0.00 0.00 66 1011.7
20260506150049 68 193 2.6 7.0 0.00 0.00 0.00 66 1011.7
20260506145526 68 212 1.7 13.9 0.00 0.00 0.00 67 1011.6
20260506145026 67 227 1.7 13.9 0.00 0.00 0.00 67 1011.8
20260506144538 67 11 2.6 10.4 0.00 0.00 0.00 72 1011.7
20260506144028 67 189 2.6 10.4 0.00 0.00 0.00 67 1011.4
20260506143531 67 0 0.9 8.7 0.00 0.00 0.00 67 1011.5
20260506143040 67 243 1.7 12.2 0.00 0.00 0.00 66 1011.6
20260506142526 67 302 3.5 12.2 0.00 0.00 0.00 68 1011.5
20260506142025 66 183 3.5 8.7 0.00 0.00 0.00 69 1011.8
20260506141542 66 200 1.7 7.0 0.00 0.00 0.00 69 1011.7
20260506141028 66 180 1.7 7.0 0.00 0.00 0.00 69 1011.6
20260506140525 66 238 1.7 6.1 0.00 0.00 0.00 69 1011.5
20260506140037 66 213 1.7 9.6 0.00 0.00 0.00 69 1011.4
20260506135526 66 290 2.6 9.6 0.00 0.00 0.00 69 1011.2
20260506135028 66 135 2.6 14.8 0.00 0.00 0.00 68 1011.3
20260506134541 66 95 3.5 14.8 0.00 0.00 0.00 69 1011.6
20260506134025 66 103 1.7 10.4 0.00 0.00 0.00 68 1011.5
20260506133526 66 161 2.6 10.4 0.00 0.00 0.00 69 1011.5
20260506133050 66 230 2.6 7.8 0.00 0.00 0.00 70 1011.7
20260506132530 65 79 1.7 8.7 0.00 0.00 0.00 70 1011.6
20260506132025 65 221 2.6 8.7 0.00 0.00 0.00 72 1011.8
20260506131538 64 286 3.5 8.7 0.00 0.00 0.00 71 1011.7
20260506131024 64 219 2.6 7.0 0.00 0.00 0.00 71 1011.7
20260506130528 64 200 1.7 7.0 0.00 0.00 0.00 79 1011.8
20260506130037 63 179 1.7 7.0 0.00 0.00 0.00 73 1011.7
20260506125526 63 256 2.6 7.0 0.00 0.00 0.00 74 1011.7
20260506125023 63 202 0.9 7.8 0.00 0.00 0.00 74 1011.8
20260506124537 63 205 1.7 7.8 0.00 0.00 0.00 75 1011.8
20260506124025 62 144 2.6 7.8 0.00 0.00 0.00 75 1011.7
20260506123526 62 204 1.7 7.0 0.00 0.00 0.00 75 1011.6
20260506123037 62 191 1.7 7.0 0.00 0.00 0.00 75 1011.7
20260506122526 62 151 2.6 7.0 0.00 0.00 0.00 76 1011.6
20260506122025 62 32 1.7 6.1 0.00 0.00 0.00 77 1011.7
20260506121545 61 234 2.6 6.1 0.00 0.00 0.00 77 1011.8
20260506121026 61 240 1.7 6.1 0.00 0.00 0.00 78 1011.9
20260506120527 60 54 1.7 10.4 0.00 0.00 0.00 79 1011.9
20260506120056 60 84 0.9 10.4 0.00 0.00 0.00 80 1012.0
20260506115527 60 234 4.3 10.4 0.00 0.00 0.00 80 1012.0
20260506115026 60 0 2.6 7.0 0.00 0.00 0.00 80 1012.0
20260506114537 59 28 1.7 7.0 0.00 0.00 0.00 81 1012.0
20260506114026 59 190 1.7 7.8 0.00 0.00 0.00 82 1012.1
20260506113526 59 91 1.7 7.8 0.00 0.00 0.00 82 1012.2
20260506113037 58 246 1.7 7.8 0.00 0.00 0.00 82 1012.3
20260506112528 58 237 1.7 7.0 0.00 0.00 0.00 83 1012.2
20260506112026 58 146 0.9 7.0 0.00 0.00 0.00 83 1012.3
20260506111544 58 28 0.9 5.2 0.00 0.00 0.00 84 1012.3
20260506111030 57 222 0.9 5.2 0.00 0.00 0.00 84 1012.3
20260506110528 57 360 1.7 4.3 0.00 0.00 0.00 84 1012.3
20260506110048 57 155 1.7 9.6 0.00 0.00 0.00 83 1012.2
20260506105529 57 205 0.9 9.6 0.00 0.00 0.00 83 1012.2
20260506105026 57 272 1.7 9.6 0.00 0.00 0.00 83 1012.0
20260506104553 57 0 0.9 5.2 0.00 0.00 0.00 84 1012.0
20260506104025 57 360 0.9 5.2 0.00 0.00 0.00 84 1012.0
20260506103524 57 360 1.7 5.2 0.00 0.00 0.00 84 1011.9
20260506103044 57 360 0.9 7.0 0.00 0.00 0.00 84 1012.0
20260506102529 57 0 1.7 7.0 0.00 0.00 0.00 84 1012.0
20260506102026 57 360 0.9 5.2 0.00 0.00 0.00 84 1012.0
20260506101539 57 360 2.6 5.2 0.00 0.00 0.00 85 1011.8
20260506101026 57 360 1.7 7.8 0.00 0.00 0.00 85 1012.0
20260506100526 57 360 1.7 7.8 0.00 0.00 0.00 84 1011.9
20260506100037 57 0 1.7 8.7 0.00 0.00 0.00 85 1011.9
20260506095527 57 360 0.9 8.7 0.00 0.00 0.00 84 1011.7
20260506095029 57 177 1.7 8.7 0.00 0.00 0.00 85 1011.8
20260506094536 57 167 1.7 7.8 0.00 0.00 0.00 84 1011.7
20260506094025 57 236 0.9 7.8 0.00 0.00 0.00 85 1011.7
20260506093525 57 360 2.6 7.8 0.00 0.00 0.00 84 1011.6
20260506093040 57 219 2.6 7.0 0.00 0.00 0.00 85 1011.8
20260506092525 57 112 1.7 7.8 0.00 0.00 0.00 85 1011.8
20260506092026 57 360 1.7 7.8 0.00 0.00 0.00 85 1011.9
20260506091538 57 360 0.0 10.4 0.00 0.00 0.00 85 1012.0
20260506091025 57 360 1.7 10.4 0.00 0.00 0.00 85 1011.9
20260506090525 57 360 1.7 7.8 0.00 0.00 0.00 84 1011.9
20260506090040 57 183 2.6 7.8 0.00 0.00 0.00 84 1011.9
20260506085526 57 209 1.7 7.8 0.00 0.00 0.00 84 1012.0
20260506085025 57 83 2.6 7.8 0.00 0.00 0.00 84 1012.0
20260506084610 57 196 1.7 7.8 0.00 0.00 0.00 84 1012.0
20260506084025 57 279 0.9 9.6 0.00 0.00 0.00 84 1012.1
20260506083526 57 169 1.7 9.6 0.00 0.00 0.00 84 1012.1
20260506083039 57 177 2.6 8.7 0.00 0.00 0.00 84 1012.1
20260506082526 57 250 1.7 6.1 0.00 0.00 0.00 84 1012.1
20260506082026 57 29 2.6 6.1 0.00 0.00 0.00 83 1012.1
20260506081552 57 213 1.7 6.1 0.00 0.00 0.00 83 1012.3
20260506081029 57 238 0.9 7.0 0.00 0.00 0.00 83 1012.2
20260506080528 57 186 1.7 7.0 0.00 0.00 0.00 83 1012.2
20260506073526 58 193 2.6 8.7 0.00 0.00 0.00 82 1012.2
20260506073038 58 172 2.6 13.9 0.00 0.00 0.00 82 1012.2
20260506072525 58 95 1.7 13.9 0.00 0.00 0.00 82 1012.1
20260506072027 58 233 2.6 8.7 0.00 0.00 0.00 82 1012.1
20260506071544 58 300 1.7 7.8 0.00 0.00 0.00 82 1012.0
20260506071025 58 252 1.7 7.0 0.00 0.00 0.00 82 1012.2
20260506070526 58 209 1.7 5.2 0.00 0.00 0.00 82 1012.1
20260506062026 58 32 2.6 13.9 0.00 0.00 0.00 81 1012.0
20260506061537 58 293 0.9 7.0 0.00 0.00 0.00 81 1011.8
20260506061025 58 165 2.6 7.0 0.00 0.00 0.00 81 1012.0
20260506060528 58 185 1.7 7.8 0.00 0.00 0.00 81 1012.1
20260506051027 58 175 2.6 12.2 0.00 0.00 0.00 80 1012.3
20260506050526 58 334 2.6 7.8 0.00 0.00 0.00 80 1012.4
20260506045026 58 196 1.7 8.7 0.00 0.00 0.00 80 1012.5
20260506044538 58 208 2.6 8.7 0.00 0.00 0.00 80 1012.4
20260506044025 58 200 2.6 8.7 0.00 0.00 0.00 79 1012.6
20260506043528 58 212 1.7 8.7 0.00 0.00 0.00 79 1012.7
20260506043040 58 0 0.9 8.7 0.00 0.00 0.00 79 1012.7
20260506042525 58 184 0.9 8.7 0.00 0.00 0.00 79 1012.6
20260506042024 58 202 1.7 8.7 0.00 0.00 0.00 79 1012.6
20260506041538 58 245 2.6 8.7 0.00 0.00 0.00 79 1012.5
20260506041024 58 201 3.5 8.7 0.00 0.00 0.00 79 1012.5
20260506040528 58 174 1.7 10.4 0.00 0.00 0.00 78 1012.4
20260506040040 58 28 3.5 10.4 0.00 0.00 0.00 78 1012.3
20260506035526 58 195 0.9 11.3 0.00 0.00 0.00 78 1012.3
20260506035027 58 175 1.7 11.3 0.00 0.00 0.00 78 1012.4
20260506034537 58 144 1.7 7.0 0.00 0.00 0.00 77 1012.4
20260506034027 58 294 1.7 8.7 0.00 0.00 0.00 77 1012.3
20260506033525 58 178 0.9 9.6 0.00 0.00 0.00 77 1012.3
20260506033043 58 234 2.6 9.6 0.00 0.00 0.00 76 1012.2
20260506032527 58 223 1.7 7.0 0.00 0.00 0.00 76 1012.2
20260506032027 58 184 2.6 8.7 0.00 0.00 0.00 76 1012.1
20260506031542 58 215 2.6 8.7 0.00 0.00 0.00 76 1012.2